Weather reports worldwide

Advertisment
Pertusato, France (7770): temperature & dewpoint: 26.09.2020 00:00:00 - 02.10.2020 00:00:00 (CEST)Pertusato, France (7770): wind speed & gusts: 26.09.2020 00:00:00 - 02.10.2020 00:00:00 (CEST)Pertusato, France (7770): wind direction: 26.09.2020 00:00:00 - 02.10.2020 00:00:00 (CEST)Pertusato, France (7770): reduced air pressure: 26.09.2020 00:00:00 - 02.10.2020 00:00:00 (CEST)Pertusato, France (7770): visibility: 26.09.2020 00:00:00 - 02.10.2020 00:00:00 (CEST)Pertusato, France (7770): precipitation: 26.09.2020 00:00:00 - 02.10.2020 00:00:00 (CEST)
Date & Time tt [°C] td [°C] ff [km/h] ff [kn] fx [km/h] fx [kn] dd ppp [hPa] vv [km] rr [mm]
02.10.2020 00:00:00 20,0 17,4 9 5 36 19 ENE 1007,7 - 0,0
01.10.2020 23:00:00 19,9 17,5 13 7 36 20 NW 1008,3 - 0,0
01.10.2020 22:00:00 19,5 17,1 14 8 36 19 W 1008,6 - 0,0
01.10.2020 21:00:00 20,0 17,0 11 6 38 21 WNW 1008,5 - 0,0
01.10.2020 20:00:00 20,0 17,0 14 8 44 24 WNW 1008,5 18 0,0
01.10.2020 19:00:00 20,0 16,4 27 15 45 25 W 1008,4 - 0,0
01.10.2020 18:00:00 20,4 16,0 24 13 53 29 W 1008,5 - 0,0
01.10.2020 17:00:00 20,7 16,3 31 17 55 30 W 1008,6 18 0,0
01.10.2020 16:00:00 21,0 16,4 30 16 55 30 W 1008,9 - 0,0
01.10.2020 15:00:00 20,7 15,9 32 17 56 30 W 1009,5 - 0,0
01.10.2020 14:00:00 21,3 16,5 31 17 45 24 W 1009,8 14 0,0
01.10.2020 13:00:00 20,5 15,5 20 11 40 21 W 1010,1 - 0,0
01.10.2020 12:00:00 20,6 15,8 18 10 37 20 W 1010,6 - 0,0
01.10.2020 11:00:00 20,0 15,0 22 12 35 19 W 1010,6 14 0,0
01.10.2020 10:00:00 19,8 15,0 25 13 33 18 W 1010,9 - 0,0
01.10.2020 09:00:00 18,7 14,6 16 9 26 14 WNW 1010,8 - 0,0
01.10.2020 08:00:00 17,2 14,3 14 7 22 12 W 1011,0 12 0,0
01.10.2020 07:00:00 17,0 13,9 18 10 25 13 WNW 1010,8 - 0,0
01.10.2020 06:00:00 17,3 13,6 20 11 29 16 WNW 1011,1 - 0,0
01.10.2020 05:00:00 17,1 13,6 17 9 26 14 WNW 1011,4 12 0,0
01.10.2020 04:00:00 17,4 13,7 19 10 30 16 WNW 1011,6 - 0,0
01.10.2020 03:00:00 17,6 13,7 20 11 39 21 WNW 1012,3 - 0,0
01.10.2020 02:00:00 18,1 14,4 24 13 42 23 WNW 1012,2 12 0,0
01.10.2020 01:00:00 18,2 14,3 24 13 40 21 W 1012,7 - 0,0
01.10.2020 00:00:00 18,5 14,8 26 14 38 20 W 1013,2 - 0,0
30.09.2020 23:00:00 18,5 14,2 28 15 41 22 W 1013,5 12 0,0
30.09.2020 22:00:00 18,6 14,3 27 14 44 24 W 1013,6 - 0,0
30.09.2020 21:00:00 18,8 14,1 28 15 42 23 W 1013,4 - 0,0
30.09.2020 20:00:00 18,8 13,2 26 14 38 21 W 1013,5 12 0,0
30.09.2020 19:00:00 18,9 13,7 22 12 38 20 W 1013,6 - 0,0
30.09.2020 18:00:00 19,6 14,2 25 13 39 21 W 1013,5 - 0,0
30.09.2020 17:00:00 19,8 14,4 24 13 40 22 W 1013,7 12 0,0
30.09.2020 16:00:00 20,1 14,7 23 12 36 19 W 1014,1 - 0,0
30.09.2020 15:00:00 20,5 14,6 19 10 35 19 W 1014,4 - 0,0
30.09.2020 14:00:00 20,4 14,1 18 10 35 19 W 1015,0 12 0,0
30.09.2020 13:00:00 20,3 13,5 14 8 34 18 W 1015,6 - 0,0
30.09.2020 12:00:00 20,4 13,6 16 9 27 14 W 1015,7 - 0,0
30.09.2020 11:00:00 20,4 12,9 14 7 29 16 W 1015,7 - 0,0
30.09.2020 10:00:00 20,1 13,1 13 7 21 12 W 1015,9 - 0,0
30.09.2020 09:00:00 19,2 12,5 11 6 18 10 WNW 1016,0 - 0,0
30.09.2020 08:00:00 17,3 11,8 13 7 27 15 WNW 1015,9 14 0,0
30.09.2020 07:00:00 17,3 11,8 14 8 37 20 NW 1015,7 - 0,0
30.09.2020 06:00:00 17,2 12,3 19 10 30 16 WNW 1015,8 - 0,0
30.09.2020 05:00:00 17,4 12,9 23 12 33 18 WNW 1016,0 14 0,0
30.09.2020 04:00:00 17,3 13,4 19 11 35 19 W 1016,4 - 0,0
30.09.2020 03:00:00 17,2 12,9 21 11 35 19 WNW 1016,7 - 0,0
30.09.2020 02:00:00 17,3 13,4 23 12 37 20 WNW 1016,9 15 0,0
30.09.2020 01:00:00 17,2 13,5 24 13 40 21 W 1017,0 - 0,0
30.09.2020 00:00:00 17,4 13,7 28 15 40 22 W 1017,2 - 0,0
29.09.2020 23:00:00 17,8 13,7 26 14 42 23 WNW 1017,3 15 0,0
29.09.2020 22:00:00 18,1 13,8 29 16 49 26 W 1017,4 - 0,0
29.09.2020 21:00:00 18,4 13,5 35 19 56 30 W 1016,9 - 0,0
29.09.2020 20:00:00 18,3 12,7 36 19 69 37 W 1016,7 15 0,0
29.09.2020 19:00:00 18,6 13,5 40 22 65 35 W 1016,6 - 0,0
29.09.2020 18:00:00 19,1 14,1 36 19 76 41 W 1016,3 - 0,0
29.09.2020 17:00:00 19,4 14,9 44 24 65 35 W 1016,6 15 0,0
29.09.2020 16:00:00 19,1 14,6 44 24 71 38 W 1016,6 - 0,0
29.09.2020 15:00:00 19,1 14,6 40 21 73 40 W 1016,8 - 0,0
29.09.2020 14:00:00 19,2 14,7 42 23 67 36 W 1016,9 15 0,0
29.09.2020 13:00:00 19,6 14,4 36 19 67 36 W 1017,0 - 0,0
29.09.2020 12:00:00 19,5 14,1 42 23 72 39 W 1016,8 - 0,0
29.09.2020 11:00:00 19,1 13,9 32 17 64 35 W 1017,1 15 0,0
29.09.2020 10:00:00 19,0 13,2 33 18 58 31 W 1016,3 - 0,0
29.09.2020 09:00:00 18,9 14,0 31 17 61 33 W 1016,1 - 0,0
29.09.2020 08:00:00 18,6 13,0 25 13 62 34 W 1015,3 15 0,0
29.09.2020 07:00:00 18,4 13,0 32 17 59 32 W 1015,1 - 0,0
29.09.2020 06:00:00 17,8 13,5 26 14 49 27 W 1015,1 - 0,0
29.09.2020 05:00:00 18,0 13,7 28 15 47 26 W 1015,2 15 0,0
29.09.2020 04:00:00 17,9 13,6 27 15 42 23 W 1015,3 - 0,0
29.09.2020 03:00:00 17,3 13,2 22 12 34 19 W 1015,7 - 0,0
29.09.2020 02:00:00 17,1 12,8 23 12 42 23 WNW 1015,3 12 0,0
29.09.2020 01:00:00 17,3 12,8 29 16 44 24 W 1014,6 - 0,0
29.09.2020 00:00:00 17,1 12,4 28 15 45 24 WNW 1014,7 - 0,0
28.09.2020 23:00:00 17,1 12,6 29 16 61 33 WNW 1013,9 12 0,0
28.09.2020 22:00:00 17,3 12,6 39 21 74 40 WNW 1013,2 - 0,0
28.09.2020 21:00:00 18,2 12,9 49 26 74 40 W 1012,3 - 0,0
28.09.2020 20:00:00 17,9 12,8 42 23 67 36 W 1011,8 12 0,0
28.09.2020 19:00:00 17,8 12,7 44 24 87 47 W 1011,3 - 0,0
28.09.2020 18:00:00 17,9 12,1 59 32 84 46 W 1009,7 - 0,0
28.09.2020 17:00:00 18,1 12,5 49 26 81 44 W 1009,4 12 0,0
28.09.2020 16:00:00 18,2 12,9 46 25 77 42 WNW 1009,5 - 0,0
28.09.2020 15:00:00 18,5 11,8 53 28 79 42 W 1009,1 - 0,0
28.09.2020 14:00:00 18,6 11,9 54 29 77 41 W 1009,2 12 0,0
28.09.2020 13:00:00 18,2 13,3 31 17 55 30 W 1009,4 - 0,0
28.09.2020 12:00:00 16,8 11,3 41 22 61 33 W 1009,5 - 0,0
28.09.2020 11:00:00 17,7 11,5 37 20 58 32 W 1008,9 12 0,0
28.09.2020 10:00:00 16,9 11,2 28 15 46 25 WNW 1008,6 - 0,0
28.09.2020 09:00:00 15,7 10,9 27 15 48 26 WNW 1008,3 - 0,0
28.09.2020 08:00:00 14,7 9,5 30 16 51 28 WNW 1007,6 12 0,0
28.09.2020 07:00:00 14,7 10,3 29 16 46 25 WNW 1007,0 - 0,0
28.09.2020 06:00:00 14,4 10,0 30 16 43 23 WNW 1006,7 - 0,0
28.09.2020 05:00:00 14,0 10,2 25 14 48 26 WNW 1007,0 12 0,0
28.09.2020 04:00:00 14,3 10,1 32 17 53 29 WNW 1006,7 - 0,0
28.09.2020 03:00:00 14,3 10,5 32 18 51 28 WNW 1007,0 - 0,0
28.09.2020 02:00:00 15,1 10,1 29 16 42 23 WNW 1007,1 12 0,0
28.09.2020 01:00:00 14,9 10,1 28 15 49 27 WNW 1007,4 - 0,0
28.09.2020 00:00:00 15,1 10,5 27 15 44 24 WNW 1007,3 - 0,0
27.09.2020 23:00:00 14,5 10,3 26 14 53 29 NW 1007,1 12 0,4
27.09.2020 22:00:00 15,1 10,1 21 12 49 27 NW 1006,6 - 0,0
27.09.2020 21:00:00 15,9 10,0 26 14 63 34 NW 1005,7 - 0,0
27.09.2020 20:00:00 16,1 9,5 41 22 66 36 WNW 1004,4 - 0,0
27.09.2020 19:00:00 15,8 11,2 26 14 45 25 WNW 1003,2 - 0,0
27.09.2020 18:00:00 16,6 11,5 8 5 26 14 NW 1002,7 - 0,0
27.09.2020 17:00:00 16,0 12,5 18 10 38 20 WNW 1002,2 12 0,0
27.09.2020 16:00:00 13,3 11,5 23 12 45 25 WNW 1001,5 - 0,4
27.09.2020 15:00:00 11,8 10,9 35 19 57 31 WNW 1001,2 - 7,8
27.09.2020 14:00:00 12,8 12,3 40 22 71 39 W 1000,8 10 11,2
27.09.2020 13:00:00 13,3 12,2 17 9 45 25 NNE 999,9 - 4,6
27.09.2020 12:00:00 13,7 11,6 27 14 53 29 NE 1000,4 - 0,0
27.09.2020 11:00:00 12,9 11,1 29 16 53 28 NE 1000,7 10 0,2
27.09.2020 10:00:00 10,5 9,4 33 18 55 30 NE 1000,9 - 1,7
27.09.2020 09:00:00 11,3 10,7 28 15 60 33 NE 1000,9 - 3,2
27.09.2020 08:00:00 11,1 10,6 29 16 55 30 NE 1001,4 6 4,4
27.09.2020 07:00:00 12,2 11,4 26 14 54 29 NE 1001,6 - 4,9
27.09.2020 06:00:00 12,9 12,0 17 9 24 13 ENE 1002,3 - 1,6
27.09.2020 05:00:00 13,5 11,2 5 3 14 8 SSE 1002,9 - 1,4
27.09.2020 04:00:00 13,0 11,1 10 5 34 18 WNW 1002,9 - 0,8
27.09.2020 03:00:00 13,5 11,0 18 10 71 38 NW 1003,9 - 0,6
27.09.2020 02:00:00 15,0 10,0 48 26 76 41 W 1003,6 10 0,0
27.09.2020 01:00:00 16,3 9,5 41 22 88 48 WNW 1003,6 - 0,0
27.09.2020 00:00:00 17,3 10,2 57 31 106 57 WNW 1002,9 - 0,0
26.09.2020 23:00:00 17,3 7,3 71 39 116 62 W 1001,7 - 0,0
26.09.2020 22:00:00 17,1 7,7 76 41 109 59 W 1001,4 - 0,0
26.09.2020 21:00:00 17,2 9,1 83 45 117 63 W 1000,9 - 0,0
26.09.2020 20:00:00 16,5 8,2 75 40 112 61 W 1001,8 10 0,0
26.09.2020 19:00:00 16,9 9,1 75 40 112 61 W 1001,0 - 0,0
26.09.2020 18:00:00 16,8 7,2 73 40 126 68 W 1002,0 - 0,0
26.09.2020 17:00:00 17,3 9,2 74 40 124 67 W 1000,8 10 0,0
26.09.2020 16:00:00 17,3 8,7 81 44 124 67 W 1001,2 - 0,0
26.09.2020 15:00:00 17,6 9,0 88 47 124 67 W 1000,8 - 0,0
26.09.2020 14:00:00 17,7 9,1 72 39 102 55 W 1002,2 10 0,0
26.09.2020 13:00:00 17,2 8,6 77 42 105 57 W 1002,0 - 0,0
26.09.2020 12:00:00 17,5 8,9 62 34 96 52 W 1002,9 - 0,0
26.09.2020 11:00:00 17,4 9,8 61 33 90 49 W 1002,4 10 0,0
26.09.2020 10:00:00 17,3 10,2 56 31 92 50 W 1002,7 - 0,0
26.09.2020 09:00:00 17,0 10,4 54 29 79 43 W 1001,2 - 0,0
26.09.2020 08:00:00 16,0 8,5 46 25 108 58 WNW 1001,1 10 0,0
26.09.2020 07:00:00 15,9 9,6 68 37 102 55 W 998,9 - 0,0
26.09.2020 06:00:00 15,9 9,6 61 33 103 56 WNW 1000,5 - 0,0
26.09.2020 05:00:00 16,2 8,9 69 38 120 65 WNW 1000,0 10 0,0
26.09.2020 04:00:00 16,9 9,8 70 38 111 60 W 1000,2 - 0,0
26.09.2020 03:00:00 17,1 8,8 65 35 114 62 WNW 1000,4 - 0,0
26.09.2020 02:00:00 17,7 9,3 71 39 111 60 W 999,5 15 0,0
26.09.2020 01:00:00 17,9 9,5 68 37 108 59 WNW 1000,6 - 0,0
26.09.2020 00:00:00 18,1 10,0 65 35 107 58 W 1001,1 - 0,0

tt = temperature
td = dewpoint
ff = wind speed
fx = gusts
dd = wind direction
ppp = reduced air pressure
vv = visibility
rr = precipitation

Next stations